Mc Donough, Georgia, United States
Lat: 33.45N, Lon: 84.15W
Wx Zone: GAZ057
Local Info
Past Weather Observations for Today

NOTE: This archive is for the closest National Weather Service station to Mc Donough. Information may differ from the station used for current weather conditions.

Click here for Long-term Archive

Time Weather Temperature Dewpoint Humidity Pressure Winds Precip Visibility
19:52
Overcast
Light Rain
55°F / 13°C 54°F / 12°C 94% 29.89 in
(1012 mb)
S 12.7 mph
(S 20 kph)
0.03 in
(0.76 mm)
9SM
18:52
Overcast
Light Rain
55°F / 13°C 52°F / 11°C 88% 29.92 in
(1013 mb)
S 16.1 mph
(S 26 kph)
0.04 in
(1.02 mm)
6SM
18:30
Overcast
Light Rain
55°F / 13°C 52°F / 11°C 88% 29.92 in
(1013 mb)
S 10.4 mph
(S 17 kph)
0.02 in
(0.51 mm)
10SM
18:12
Overcast
Light Rain
54°F / 12°C 52°F / 11°C 94% 29.92 in
(1013 mb)
S 13.8 mph
(S 22 kph)
0.02 in
(0.51 mm)
8SM
17:52
Overcast
Light Rain
54°F / 12°C 52°F / 11°C 94% 29.92 in
(1013 mb)
S 13.8 mph
(S 22 kph)
0.07 in
(1.78 mm)
6SM
16:52
Overcast
Rain
54°F / 12°C 50°F / 10°C 88% 29.95 in
(1014 mb)
S 11.5 mph
(S 19 kph)
0.05 in
(1.27 mm)
5SM
15:52
Overcast
Light Rain
54°F / 12°C 48°F / 9°C 82% 29.98 in
(1015 mb)
SSE 10.4 mph
(SSE 17 kph)
0.04 in
(1.02 mm)
6SM
15:32
Overcast
Light Rain
54°F / 12°C 48°F / 9°C 82% 30.01 in
(1016 mb)
S 5.8 mph
(S 9 kph)
0.01 in
(0.25 mm)
6SM
15:05
Overcast
Light Rain
54°F / 12°C 48°F / 9°C 82% 30.01 in
(1016 mb)
S 8.1 mph
(S 13 kph)
0.00 in
(0.00 mm)
10SM
14:52
Overcast
Light Rain
54°F / 12°C 46°F / 8°C 77% 30.01 in
(1016 mb)
SSE 9.2 mph
(SSE 15 kph)
0.01 in
(0.25 mm)
7SM
14:44
Overcast
Light Rain
54°F / 12°C 46°F / 8°C 77% 30.01 in
(1016 mb)
SSE 10.4 mph
(SSE 17 kph)
0.01 in
(0.25 mm)
6SM
14:24
Overcast
Light Rain
55°F / 13°C 46°F / 8°C 72% 30.04 in
(1017 mb)
S 9.2 mph
(S 15 kph)
0.00 in
(0.00 mm)
10SM
13:52
Overcast
55°F / 13°C 45°F / 7°C 67% 30.04 in
(1017 mb)
S 11.5 mph
(S 19 kph)
- 10SM
12:52
Overcast
55°F / 13°C 45°F / 7°C 67% 30.09 in
(1019 mb)
S 10.4 mph
(S 17 kph)
- 10SM
11:52
Overcast
55°F / 13°C 43°F / 6°C 63% 30.15 in
(1021 mb)
S 6.9 mph
(S 11 kph)
- 10SM
11:19
Overcast
54°F / 12°C 41°F / 5°C 63% 30.15 in
(1021 mb)
S 9.2 mph
(S 15 kph)
- 10SM
11:04
Overcast
54°F / 12°C 41°F / 5°C 63% 30.18 in
(1022 mb)
S 12.7 mph
(S 20 kph)
- 10SM
10:52
Mostly Cloudy
54°F / 12°C 41°F / 5°C 63% 30.18 in
(1022 mb)
SSE 15 mph
(SSE 24 kph)
- 10SM
09:52
Mostly Cloudy
48°F / 9°C 37°F / 3°C 66% 30.18 in
(1022 mb)
SSE 9.2 mph
(SSE 15 kph)
- 10SM
08:52
Mostly Cloudy
43°F / 6°C 34°F / 1°C 71% 30.18 in
(1022 mb)
SE 6.9 mph
(SE 11 kph)
- 10SM
07:52
Mostly Cloudy
39°F / 4°C 30°F / -1°C 70% 30.21 in
(1023 mb)
SE 5.8 mph
(SE 9 kph)
- 10SM
06:52
Mostly Cloudy
41°F / 5°C 28°F / -2°C 61% 30.21 in
(1023 mb)
SE 4.6 mph
(SE 7 kph)
- 10SM
05:52
Mostly Cloudy
43°F / 6°C 25°F / -4°C 49% 30.21 in
(1023 mb)
SE 4.6 mph
(SE 7 kph)
- 10SM
04:52
Overcast
43°F / 6°C 25°F / -4°C 49% 30.21 in
(1023 mb)
SE 3.5 mph
(SE 6 kph)
- 10SM
03:52
Overcast
43°F / 6°C 25°F / -4°C 49% 30.21 in
(1023 mb)
SE 5.8 mph
(SE 9 kph)
- 10SM
02:52
Mostly Cloudy
45°F / 7°C 19°F / -7°C 37% 30.24 in
(1024 mb)
ESE 3.5 mph
(ESE 6 kph)
- 10SM
01:52
Mostly Cloudy
45°F / 7°C 21°F / -6°C 39% 30.24 in
(1024 mb)
SE 3.5 mph
(SE 6 kph)
- 10SM
00:52
Overcast
45°F / 7°C 23°F / -5°C 42% 30.24 in
(1024 mb)
SSE 3.5 mph
(SSE 6 kph)
- 10SM
Time Weather Temperature Dewpoint Humidity Pressure Winds Precip Visibility


Weather for websites

WeatherForYou.com, LLC is not responsible for any damages or problems caused by this service. Current weather conditions are obtained from the closest station including government and personal stations which may have varying degrees of accuracy. Weather forecasts are derived from the NOAA NDFD. Like all things, this site belongs to Jesus Christ... He just trusts me to maintain it. If you have any questions or comments email webmaster@weatherforyou.com

Copyright © 2015, WeatherForYou.com LLC. All rights reserved.